Burlington, CO

8:45 AM MST on December 13, 2017 (GMT -0700)
Kit Carson County

Weather History for KITR - November, 2012

Change the Weather History Date:

Saturday, November 3, 2012

  Actual Average Record
Temperature  
Mean Temperature 46 °F 44 °F  
Max Temperature 64 °F 58 °F 80 °F (2015)
Min Temperature 27 °F 29 °F -3 °F (1991)
Degree Days  
Heating Degree Days 20    
Moisture  
Dew Point 28 °F    
Average Humidity 59    
Maximum Humidity 92    
Minimum Humidity 25    
Precipitation  
Precipitation 0.00 in 0.04 in 1.06 in (1974)
Month to date precipitation 0.00 0.11  
Year to date precipitation 10.56 16.55  
Sea Level Pressure  
Sea Level Pressure 30.17 in    
Wind  
Wind Speed 10 mph (SW)    
Max Wind Speed 17 mph    
Max Gust Speed 25 mph    
Visibility 10 miles    
Events      
T = Trace of Precipitation, MM = Missing Value Source: NWS Daily Summary

Daily Weather History Graph

Daily Weather History Graph

Search for Another Location

Airport or City:

Trip Planner

Search our weather history database for the weather conditions in past years. The results will help you decide how hot, cold, wet, or windy it might be!

Date:

Astronomy

Nov. 03, 2012 Rise Set
Actual Time 7:19 AM MDT 5:45 PM MDT
Civil Twilight 6:51 AM MDT 6:13 PM MDT
Nautical Twilight 6:20 AM MDT 6:44 PM MDT
Astronomical Twilight 5:48 AM MDT 7:16 PM MDT
Moon 9:28 PM MDT (11/3) 11:24 AM MDT (11/3)
Length of Visible Light 11h 21m
Length of Day
10h 25m
Waning Gibbous, 80% of the Moon is Illuminated
Nov 3
Waning Gibbous
Nov 6
Last Quarter
Nov 13
New
Nov 20
First Quarter
Nov 28
Full

Hourly Weather History & Observations

Time (MDT) Temp. Windchill Dew Point Humidity Pressure Visibility Wind Dir Wind Speed Gust Speed Precip Events Conditions
12:53 AM 30.0 °F 23.2 °F 26.1 °F 85% 30.16 in 10.0 mi West 6.9 mph - N/A   Clear
1:53 AM 28.9 °F 21.1 °F 26.1 °F 89% 30.17 in 10.0 mi WSW 8.1 mph - N/A   Clear
2:53 AM 30.9 °F 23.5 °F 27.0 °F 85% 30.17 in 10.0 mi West 8.1 mph - N/A   Clear
3:53 AM 28.9 °F 21.9 °F 27.0 °F 92% 30.18 in 10.0 mi WNW 6.9 mph - N/A   Clear
4:53 AM 28.0 °F 18.6 °F 26.1 °F 92% 30.19 in 10.0 mi West 10.4 mph - N/A   Clear
5:53 AM 28.9 °F 21.9 °F 27.0 °F 92% 30.20 in 10.0 mi WSW 6.9 mph - N/A   Clear
6:53 AM 30.0 °F 23.2 °F 27.0 °F 88% 30.23 in 10.0 mi WSW 6.9 mph - N/A   Clear
7:53 AM 30.9 °F 23.5 °F 28.0 °F 89% 30.25 in 10.0 mi WSW 8.1 mph - N/A   Clear
8:53 AM 43.0 °F 39.5 °F 36.0 °F 76% 30.24 in 10.0 mi West 5.8 mph - N/A   Clear
9:53 AM 52.0 °F - 34.0 °F 50% 30.23 in 10.0 mi SSW 8.1 mph - N/A   Clear
10:53 AM 55.9 °F - 30.9 °F 39% 30.20 in 10.0 mi South 12.7 mph - N/A   Clear
11:53 AM 57.9 °F - 28.9 °F 33% 30.19 in 10.0 mi SSW 12.7 mph - N/A   Clear
12:53 PM 61.0 °F - 28.0 °F 29% 30.16 in 10.0 mi SSW 15.0 mph 21.9 mph N/A   Clear
1:53 PM 63.0 °F - 26.1 °F 25% 30.13 in 10.0 mi SSW 17.3 mph 25.3 mph N/A   Clear
2:53 PM 63.0 °F - 26.1 °F 25% 30.12 in 10.0 mi SSW 17.3 mph 24.2 mph N/A   Clear
3:53 PM 60.1 °F - 25.0 °F 26% 30.12 in 10.0 mi SSW 13.8 mph - N/A   Clear
4:53 PM 57.9 °F - 27.0 °F 31% 30.14 in 10.0 mi SSW 12.7 mph - N/A   Clear
5:53 PM 52.0 °F - 28.0 °F 40% 30.15 in 10.0 mi SSW 11.5 mph - N/A   Clear
6:53 PM 48.0 °F - 28.9 °F 48% 30.17 in 10.0 mi South 12.7 mph - N/A   Clear
7:53 PM 46.0 °F 39.9 °F 28.0 °F 50% 30.17 in 10.0 mi South 13.8 mph - N/A   Clear
8:53 PM 44.1 °F 37.4 °F 28.0 °F 53% 30.15 in 10.0 mi SSW 13.8 mph - N/A   Clear
9:53 PM 44.1 °F 37.7 °F 28.9 °F 55% 30.13 in 10.0 mi South 12.7 mph - N/A   Clear
10:53 PM 42.1 °F 35.7 °F 28.9 °F 60% 30.12 in 10.0 mi SSW 11.5 mph - N/A   Clear
11:53 PM 37.0 °F 31.0 °F 28.0 °F 70% 30.12 in 10.0 mi SSW 8.1 mph - N/A   Clear